FW6014 Weather Reports


Display with metric or nautical units.
time (UTC)temp
F
wind
direction
speed
MPH
gust
MPH
rain 1hr
in
rain 24hr
in
rain mn
in
humidity
%
barometer
mb
20260504184302 55 276 0.0 0.0 0.00 0.02 0.02 72 1006.8
20260504183800 55 276 0.0 1.0 0.00 0.02 0.02 72 1006.8
20260504183301 55 276 0.0 1.0 0.00 0.02 0.02 72 1006.9
20260504183144 54 276 0.0 1.0 0.00 0.02 0.02 72 1007.8
20260504182802 55 276 0.0 2.0 0.00 0.02 0.02 74 1006.9
20260504182304 54 276 0.0 2.0 0.00 0.02 0.02 70 1006.9
20260504181801 54 276 0.0 2.0 0.00 0.02 0.02 73 1007.0
20260504181520 53 276 0.0 2.0 0.00 0.02 0.02 75 1007.9
20260504180801 54 276 1.0 3.0 0.00 0.02 0.02 77 1007.1
20260504180302 53 276 1.0 3.0 0.00 0.02 0.02 76 1007.2
20260504180131 53 276 1.0 3.0 0.00 0.02 0.02 78 1008.0
20260504175801 53 276 1.0 2.0 0.00 0.02 0.02 76 1007.2
20260504175303 53 276 1.0 3.0 0.00 0.02 0.02 79 1007.2
20260504174531 53 276 1.0 3.0 0.00 0.02 0.02 78 1008.0
20260504174302 53 276 0.0 1.0 0.01 0.02 0.02 78 1007.1
20260504173301 52 276 0.0 0.0 0.01 0.02 0.02 80 1007.2
20260504173131 51 276 0.0 0.0 0.01 0.02 0.02 80 1008.1
20260504172801 52 276 0.0 0.0 0.01 0.02 0.02 80 1007.3
20260504171801 51 276 0.0 0.0 0.01 0.02 0.02 83 1007.3
20260504171532 50 276 0.0 0.0 0.01 0.02 0.02 85 1008.1
20260504171302 51 276 0.0 0.0 0.01 0.02 0.02 85 1007.2
20260504170801 50 276 0.0 0.0 0.02 0.02 0.02 84 1007.4
20260504170301 50 276 0.0 0.0 0.02 0.02 0.02 86 1007.4
20260504170129 49 276 0.0 0.0 0.02 0.02 0.02 86 1008.3
20260504160301 55 276 1.0 3.0 0.00 0.00 0.00 65 1006.8
20260504150801 57 276 2.0 7.0 0.00 0.00 0.00 57 1006.2
20260504150301 57 276 2.0 7.0 0.00 0.00 0.00 55 1006.3
20260504141301 53 276 2.0 7.0 0.00 0.00 0.00 62 1006.9
20260504140800 53 276 2.0 6.0 0.00 0.00 0.00 62 1007.1
20260504140302 52 276 2.0 6.0 0.00 0.00 0.00 62 1007.1
20260504130803 49 276 2.0 7.0 0.00 0.00 0.00 64 1007.9
20260504120302 41 276 0.0 4.0 0.00 0.01 0.00 71 1008.5
20260504110301 37 276 0.0 1.0 0.00 0.03 0.00 80 1008.4
20260504100302 38 276 0.0 1.0 0.00 0.05 0.00 75 1008.4
20260504100153 37 276 0.0 1.0 0.00 0.06 0.00 75 1009.5
20260504090138 30 276 0.0 0.0 0.00 0.06 0.00 88 1009.4
20260504081801 31 276 0.0 0.0 0.00 0.06 0.00 86 1008.3
20260504081510 30 276 0.0 0.0 0.00 0.06 0.00 87 1009.2
20260504081300 31 276 0.0 0.0 0.00 0.06 0.00 87 1008.3
20260504080258 30 276 0.0 0.0 0.00 0.06 0.00 86 1008.2
20260504070254 31 276 0.0 0.0 0.00 0.06 0.00 85 1008.4
20260504060229 34 276 0.0 2.0 0.00 0.06 0.00 78 1007.8
20260504050708 38 276 1.0 2.0 0.00 0.06 0.00 68 1007.9
20260504050207 38 276 1.0 2.0 0.00 0.06 0.00 69 1008.0
20260504050200 38 276 0.0 2.0 0.00 0.06 0.06 69 1008.9
20260504045704 38 276 1.0 2.0 0.00 0.06 0.00 66 1008.0
20260504045204 38 276 1.0 2.0 0.00 0.06 0.00 67 1008.0
20260504044702 38 276 1.0 2.0 0.00 0.06 0.00 67 1008.0
20260504044606 38 276 1.0 2.0 0.00 0.06 0.06 68 1008.9
20260504044203 38 276 1.0 2.0 0.00 0.06 0.00 71 1008.0
20260504043702 37 276 0.0 1.0 0.00 0.06 0.00 73 1007.9
20260504043203 37 276 0.0 0.0 0.00 0.06 0.00 74 1007.9
20260504043201 36 276 0.0 0.0 0.00 0.07 0.06 74 1008.9
20260504042201 38 276 0.0 1.0 0.00 0.06 0.00 72 1007.9
20260504041702 39 276 0.0 1.0 0.00 0.06 0.00 70 1007.8
20260504041545 38 276 0.0 1.0 0.00 0.07 0.06 69 1008.8
20260504040700 40 276 1.0 1.0 0.00 0.06 0.00 65 1007.7
20260504040140 40 276 0.0 2.0 0.00 0.07 0.06 66 1008.8
20260504035702 40 276 1.0 2.0 0.00 0.07 0.06 64 1007.7
20260504035203 40 276 0.0 2.0 0.00 0.07 0.06 64 1007.7
20260504034544 40 276 0.0 0.0 0.00 0.07 0.06 63 1008.8
20260504034203 40 276 0.0 0.0 0.00 0.07 0.06 65 1007.8
20260504033702 39 276 0.0 0.0 0.00 0.07 0.06 68 1007.8
20260504033203 40 276 0.0 0.0 0.00 0.07 0.06 66 1007.9
20260504033130 39 276 0.0 0.0 0.00 0.07 0.06 66 1008.9
20260504032702 40 276 0.0 0.0 0.00 0.07 0.06 64 1007.9
20260504032203 40 276 0.0 0.0 0.00 0.07 0.06 67 1007.8
20260504031702 40 276 0.0 0.0 0.00 0.07 0.06 66 1007.8
20260504031522 39 276 0.0 0.0 0.00 0.07 0.06 66 1008.7
20260504030702 40 276 0.0 0.0 0.00 0.07 0.06 67 1007.7
20260504030201 40 276 0.0 0.0 0.00 0.07 0.06 66 1007.7
20260504030112 39 276 0.0 0.0 0.00 0.07 0.06 66 1008.8
20260504025702 40 276 0.0 0.0 0.00 0.07 0.06 66 1007.7
20260504024658 40 276 0.0 0.0 0.00 0.07 0.06 64 1007.8
20260504024505 40 276 0.0 0.0 0.00 0.07 0.06 64 1008.8
20260504024153 40 276 0.0 0.0 0.00 0.07 0.06 64 1007.8
20260504023143 40 276 0.0 0.0 0.00 0.07 0.06 66 1007.8
20260504023056 39 276 0.0 0.0 0.00 0.07 0.06 66 1008.8
20260504022640 40 276 0.0 0.0 0.00 0.07 0.06 66 1007.7
20260504021655 40 276 0.0 0.0 0.00 0.07 0.06 67 1008.9
20260504021637 40 276 0.0 0.0 0.00 0.07 0.06 67 1007.9
20260504021135 41 276 0.0 0.0 0.00 0.07 0.06 66 1007.8
20260504020632 41 276 1.0 2.0 0.00 0.07 0.06 66 1007.8
20260504020131 42 276 1.0 2.0 0.00 0.07 0.06 63 1007.7
20260504020037 41 276 0.0 2.0 0.00 0.07 0.06 61 1008.7
20260504015130 42 276 1.0 2.0 0.00 0.07 0.06 62 1007.9
20260504014633 41 276 0.0 3.0 0.00 0.07 0.06 64 1008.8
20260504014629 42 276 2.0 3.0 0.00 0.07 0.06 64 1007.8
20260504014129 42 276 2.0 3.0 0.00 0.07 0.06 61 1007.9
20260504013630 42 276 1.0 3.0 0.00 0.07 0.06 61 1007.9
20260504013128 42 276 0.0 1.0 0.00 0.07 0.06 62 1008.0
20260504013037 41 276 0.0 1.0 0.00 0.07 0.06 63 1008.8
20260504011627 41 276 0.0 3.0 0.00 0.07 0.06 62 1008.6
20260504011617 42 276 1.0 3.0 0.00 0.07 0.06 63 1007.7
20260504011111 42 276 1.0 3.0 0.00 0.07 0.06 61 1007.6
20260504010606 42 276 1.0 6.0 0.00 0.07 0.06 62 1007.6
20260504010017 42 276 0.0 6.0 0.00 0.07 0.06 59 1008.5
20260504005604 42 276 0.0 3.0 0.00 0.07 0.06 61 1007.5
20260504005105 42 276 0.0 1.0 0.00 0.07 0.06 61 1007.5
20260504004617 41 276 0.0 0.0 0.00 0.07 0.06 62 1008.4
20260504004603 42 276 0.0 0.0 0.00 0.07 0.06 62 1007.4
20260504004103 42 276 0.0 0.0 0.00 0.07 0.06 60 1007.4
20260504003604 42 276 0.0 1.0 0.00 0.07 0.06 60 1007.3
20260504003103 42 276 0.0 2.0 0.00 0.07 0.06 60 1007.3
20260504003014 42 276 0.0 2.0 0.00 0.07 0.06 59 1008.2
20260504002105 42 276 0.0 5.0 0.00 0.07 0.06 60 1007.3
20260504001616 42 276 0.0 5.0 0.00 0.07 0.06 59 1008.1
20260504001604 43 276 0.0 5.0 0.00 0.07 0.06 59 1007.1
20260504001105 43 276 0.0 3.0 0.00 0.07 0.06 59 1007.2
20260504000604 43 276 1.0 4.0 0.00 0.07 0.06 59 1007.1
20260504000104 43 276 1.0 4.0 0.00 0.07 0.06 57 1007.0
20260504000014 43 276 2.0 4.0 0.00 0.07 0.06 57 1007.9
20260503235605 43 276 1.0 4.0 0.00 0.07 0.06 57 1007.0
20260503234610 43 276 0.0 3.0 0.00 0.07 0.06 56 1007.9
20260503234604 44 276 1.0 3.0 0.00 0.07 0.06 56 1006.9
20260503234103 44 276 1.0 3.0 0.00 0.07 0.06 55 1006.8
20260503233104 44 276 1.0 8.0 0.00 0.07 0.06 54 1006.8
20260503233006 44 276 2.0 8.0 0.00 0.07 0.06 54 1007.7
20260503232604 44 276 1.0 5.0 0.00 0.07 0.06 54 1006.8
20260503231104 45 276 1.0 5.0 0.00 0.07 0.06 52 1006.8
20260503230604 45 276 1.0 5.0 0.00 0.07 0.06 52 1006.7
20260503230006 45 276 1.0 3.0 0.00 0.07 0.06 51 1007.6
20260503225605 46 276 1.0 4.0 0.00 0.07 0.06 50 1006.7
20260503224608 47 276 1.0 4.0 0.00 0.07 0.06 50 1007.6
20260503224603 47 276 1.0 4.0 0.00 0.07 0.06 50 1006.7
20260503223605 47 276 2.0 9.0 0.00 0.07 0.06 47 1006.5
20260503223102 47 276 2.0 9.0 0.00 0.07 0.06 48 1006.5
20260503223002 46 276 1.0 9.0 0.00 0.07 0.06 48 1007.3
20260503222608 47 276 1.0 5.0 0.00 0.07 0.06 47 1006.3
20260503222101 48 276 1.0 4.0 0.00 0.07 0.06 47 1006.3
20260503221607 48 276 1.0 3.0 0.00 0.07 0.06 47 1007.0
20260503221602 48 276 1.0 6.0 0.00 0.07 0.06 47 1006.1
20260503221101 49 276 2.0 6.0 0.00 0.07 0.06 45 1006.1
20260503220602 49 276 1.0 4.0 0.00 0.07 0.06 45 1006.0
20260503220002 49 276 0.0 4.0 0.00 0.07 0.06 45 1006.9
20260503215601 50 276 1.0 4.0 0.00 0.07 0.06 44 1006.1
20260503214605 48 276 1.0 5.0 0.00 0.07 0.06 44 1006.8
20260503214600 49 276 2.0 5.0 0.00 0.07 0.06 44 1005.9
20260503214101 48 276 2.0 5.0 0.00 0.07 0.06 45 1006.2
20260503213601 49 276 2.0 6.0 0.00 0.07 0.06 44 1006.1
20260503213101 49 276 2.0 6.0 0.00 0.07 0.06 44 1006.1
20260503213008 49 276 2.0 6.0 0.00 0.07 0.06 43 1006.9
20260503212601 50 276 2.0 6.0 0.00 0.07 0.06 42 1005.9
20260503212102 51 276 2.0 6.0 0.00 0.07 0.06 40 1006.1
20260503211612 51 276 1.0 4.0 0.00 0.07 0.06 42 1007.0
20260503211601 51 276 2.0 4.0 0.00 0.07 0.06 42 1006.1
20260503211101 51 276 2.0 8.0 0.00 0.07 0.06 43 1006.1
20260503210603 51 276 2.0 8.0 0.00 0.07 0.06 43 1006.1
20260503210101 51 276 2.0 6.0 0.00 0.07 0.06 44 1006.1
20260503210002 51 276 2.0 6.0 0.00 0.07 0.06 41 1006.8
20260503205601 52 276 2.0 7.0 0.00 0.07 0.06 42 1005.9
20260503204608 52 276 2.0 5.0 0.00 0.07 0.06 41 1006.6
20260503204602 52 276 2.0 5.0 0.00 0.07 0.06 41 1005.7
20260503204103 53 276 2.0 7.0 0.00 0.07 0.06 42 1005.8
20260503203102 52 276 2.0 7.0 0.00 0.07 0.06 43 1005.3
20260503203002 52 276 1.0 7.0 0.00 0.07 0.06 43 1006.4
20260503202100 53 276 3.0 5.0 0.00 0.07 0.06 41 1005.6
20260503201605 52 276 2.0 7.0 0.00 0.07 0.06 42 1006.5
20260503201601 53 276 3.0 7.0 0.00 0.07 0.06 42 1005.6
20260503201101 53 276 3.0 9.0 0.00 0.07 0.06 42 1005.8
20260503200101 53 276 3.0 8.0 0.00 0.07 0.06 42 1005.4
20260503200003 52 276 2.0 6.0 0.00 0.07 0.06 41 1006.4
20260503195601 52 276 2.0 5.0 0.00 0.07 0.06 43 1005.4
20260503195102 52 276 3.0 7.0 0.00 0.07 0.06 42 1005.6
20260503194101 55 276 2.0 7.0 0.00 0.07 0.06 40 1005.4
20260503193603 55 276 2.0 5.0 0.00 0.07 0.06 43 1005.4
20260503193102 54 276 2.0 6.0 0.00 0.07 0.06 42 1005.4
20260503193003 54 276 2.0 6.0 0.00 0.07 0.06 42 1006.4
20260503192603 54 276 2.0 6.0 0.00 0.07 0.06 42 1005.3
20260503192102 54 276 2.0 6.0 0.00 0.07 0.06 42 1005.4
20260503191609 53 276 2.0 6.0 0.00 0.07 0.06 45 1006.4
20260503191603 54 276 2.0 6.0 0.00 0.07 0.06 45 1005.4
20260503191102 54 276 3.0 7.0 0.00 0.07 0.06 43 1005.4
20260503190601 54 276 2.0 12.0 0.00 0.07 0.06 45 1005.6
20260503190011 53 276 1.0 10.0 0.00 0.07 0.06 49 1006.8
20260503185601 54 276 3.0 10.0 0.00 0.07 0.06 45 1005.7
20260503185103 54 276 2.0 7.0 0.00 0.07 0.06 47 1005.6
20260503184607 53 276 2.0 7.0 0.00 0.07 0.06 47 1006.7
20260503184602 53 276 3.0 7.0 0.00 0.07 0.06 47 1005.7